Hourly Data Report for September 02, 2017

All times are specified in Local Standard Time (LST). Add 1 hour to adjust for Daylight Saving Time where and when it is observed.

MONCTON INTL A
NEW BRUNSWICK

46°06'44.000" N
64°40'43.000" W
70.70 m
8103201
71705
YQM

Download Data

Hourly Data (September 2017)
Hourly Data Report for September 2, 2017
Temp Definition
°C
Dew Point Temp Definition
°C
Rel Hum Definition
%
Wind Dir Definition
10's deg

Wind Spd Definition
km/h
Visibility Definition
km
Stn Press Definition
kPa
Hmdx Definition


Wind Chill Definition


Weather Definition


TIME
00:00 Legend Double Dagger 8.1 6.4 89 25 17 24.1 100.24     LegendNANA
01:00 Legend Double Dagger 8.8 6.7 87 26 23 24.1 100.32     LegendNANA
02:00 Legend Double Dagger 8.5 6.3 86 25 25 24.1 100.42     Mostly Cloudy
03:00 Legend Double Dagger 7.6 5.7 88 26 19 24.1 100.44     LegendNANA
04:00 Legend Double Dagger 7.4 5.6 88 25 16 24.1 100.48     LegendNANA
05:00 Legend Double Dagger 6.7 5.1 89 27 14 24.1 100.54     Mainly Clear
06:00 Legend Double Dagger 6.7 5.1 89 27 18 24.1 100.61     LegendNANA
07:00 Legend Double Dagger 8.1 5.4 83 27 20 24.1 100.68     LegendNANA
08:00 Legend Double Dagger 10.5 5.2 70 29 23 24.1 100.78     Mainly Clear
09:00 Legend Double Dagger 12.0 4.6 60 32 23 24.1 100.83     LegendNANA
10:00 Legend Double Dagger 12.1 3.9 57 30 21 24.1 100.88     LegendNANA
11:00 Legend Double Dagger 12.8 4.4 56 32 20 24.1 100.90     Mostly Cloudy
12:00 Legend Double Dagger 13.1 4.3 55 31 21 24.1 100.94     LegendNANA
13:00 Legend Double Dagger 13.1 4.2 55 30 14 24.1 100.98     LegendNANA
14:00 Legend Double Dagger 14.1 5.0 54 29 15 24.1 101.01     Mostly Cloudy
15:00 Legend Double Dagger 16.6 6.1 50 31 13 24.1 101.03     LegendNANA
16:00 Legend Double Dagger 16.3 6.2 51 31 9 24.1 101.04     LegendNANA
17:00 Legend Double Dagger 17.5 6.3 47 36 5 24.1 101.07     Mainly Clear
18:00 Legend Double Dagger 16.9 6.8 51 9 4 24.1 101.11     LegendNANA
19:00 Legend Double Dagger 13.9 7.0 63 13 12 24.1 101.19     LegendNANA
20:00 Legend Double Dagger 12.1 7.1 71 17 12 24.1 101.26     Clear
21:00 Legend Double Dagger 11.3 7.6 78 16 9 24.1 101.32     LegendNANA
22:00 Legend Double Dagger 8.6 6.7 88 18 4 24.1 101.37     LegendNANA
23:00 Legend Double Dagger 9.0 7.7 92 18 9 24.1 101.39     Clear

Notes on Data Quality.

Legend

  • E = Estimated
  • M = Missing
  • NA = Not Available
  • ‡ = Partner data that is not subject to review by the National Climate Archives
Date modified: